Location: Peebles
(55.6412°N, 3.1714°W)
Time: 04:17:02
(UTC+00:00)

USA 245 - Visible Passes

Search period start: 25 January 2022 00:00
Search period end: 04 February 2022 00:00
Orbit: 267 x 1011 km, 97.9° (Epoch: 01 November)

Date Brightness Start Highest point End Pass type
(mag) Time Alt. Az. Time Alt. Az. Time Alt. Az.
25 Jan 6.3 18:12:52 11° NE 18:13:21 11° NNE 18:14:48 10° NNE visible
25 Jan 5.8 19:50:14 23° NNE 19:50:14 23° NNE 19:53:05 10° N visible
25 Jan 6.4 21:27:37 22° NNW 21:27:37 22° NNW 21:29:41 10° NNW visible
26 Jan 6.1 18:33:22 14° NE 18:33:22 14° NE 18:36:10 10° N visible
26 Jan 5.8 20:10:44 26° N 20:10:44 26° N 20:13:42 10° N visible
26 Jan 6.5 21:48:05 21° NNW 21:48:05 21° NNW 21:50:06 10° NNW visible
27 Jan 6.0 18:53:50 17° NE 18:53:50 17° NE 18:57:04 10° N visible
27 Jan 5.8 20:31:12 29° N 20:31:12 29° N 20:34:15 10° N visible
27 Jan 6.7 22:08:34 19° NW 22:08:34 19° NW 22:10:24 10° NNW visible
28 Jan 5.8 19:14:16 21° NNE 19:14:16 21° NNE 19:17:47 10° N visible
28 Jan 5.8 20:51:38 30° N 20:51:38 30° N 20:54:43 10° NNW visible
28 Jan 6.8 22:29:00 16° NW 22:29:00 16° NW 22:30:35 10° NNW visible
29 Jan 6.4 17:58:39 10° NNE 17:58:52 10° NNE 17:59:07 10° NNE visible
29 Jan 5.7 19:34:41 25° NNE 19:34:41 25° NNE 19:38:23 10° N visible
29 Jan 5.9 21:12:03 30° NNW 21:12:03 30° NNW 21:15:06 10° NNW visible
29 Jan 7.0 22:49:24 14° NW 22:49:24 14° NW 22:50:35 10° NW visible
30 Jan 6.2 18:17:42 12° NE 18:18:41 12° NE 18:21:07 10° NNE visible
30 Jan 5.6 19:55:04 29° NNE 19:55:04 29° NNE 19:58:53 10° N visible
30 Jan 6.1 21:32:25 29° NNW 21:32:25 29° NNW 21:35:25 10° NNW visible
30 Jan 7.2 23:09:47 12° NW 23:09:47 12° NW 23:10:22 10° NW visible
31 Jan 6.0 18:38:04 15° NE 18:38:30 16° NE 18:41:58 10° N visible
31 Jan 5.5 20:15:25 34° NNE 20:15:25 34° NNE 20:19:18 10° N visible
31 Jan 6.3 21:52:47 26° NW 21:52:47 26° NW 21:55:38 10° NNW visible
01 Feb 5.9 18:58:24 19° NE 18:58:24 19° NE 19:02:36 10° N visible
01 Feb 5.4 20:35:45 37° N 20:35:45 37° N 20:39:39 10° N visible
01 Feb 6.5 22:13:06 23° NW 22:13:06 23° NW 22:15:46 10° NNW visible
02 Feb 5.7 19:18:42 24° NE 19:18:42 24° NE 19:23:05 10° N visible
02 Feb 5.5 20:56:03 39° N 20:56:03 39° N 20:59:56 10° NNW visible
02 Feb 6.7 22:33:24 20° NW 22:33:24 20° NW 22:35:45 10° NNW visible
03 Feb 6.3 18:02:04 10° NE 18:03:38 11° NNE 18:05:10 10° NNE visible
03 Feb 5.5 19:38:59 29° NE 19:38:59 29° NE 19:43:27 10° N visible
03 Feb 5.6 21:16:19 39° NNW 21:16:19 39° NNW 21:20:08 10° NNW visible
03 Feb 6.9 22:53:40 16° NW 22:53:40 16° NW 22:55:35 10° NW visible
